| time (UTC) | temp F | wind direction | speed MPH | gust MPH | rain 1hr in | rain 24hr in | rain mn in | humidity % | barometer mb |
| 20260903195520 | 91 | 168 | 1.0 | 4.0 | 0.00 | 0.00 | 0.00 | 73 | 1014.3 |
| 20260903195014 | 91 | 172 | 1.0 | 4.0 | 0.00 | 0.00 | 0.00 | 72 | 1014.4 |
| 20260903194508 | 92 | 85 | 1.0 | 5.0 | 0.00 | 0.00 | 0.00 | 73 | 1014.5 |
| 20260903194002 | 91 | 175 | 1.0 | 5.0 | 0.00 | 0.00 | 0.00 | 72 | 1014.5 |
| 20260903193456 | 91 | 85 | 1.0 | 4.0 | 0.00 | 0.00 | 0.00 | 74 | 1014.7 |
| 20260903192950 | 91 | 158 | 1.0 | 4.0 | 0.00 | 0.00 | 0.00 | 73 | 1014.7 |
| 20260903192444 | 91 | 25 | 1.0 | 4.0 | 0.00 | 0.00 | 0.00 | 74 | 1014.7 |
| 20260903191938 | 91 | 30 | 1.0 | 5.0 | 0.00 | 0.00 | 0.00 | 74 | 1014.8 |
| 20260903191434 | 90 | 293 | 2.0 | 5.0 | 0.00 | 0.00 | 0.00 | 74 | 1014.8 |
| 20260903191428 | 90 | 145 | 1.0 | 4.0 | 0.00 | 0.00 | 0.00 | 74 | 1015.0 |
| 20260903190419 | 90 | 86 | 1.0 | 5.0 | 0.00 | 0.00 | 0.00 | 74 | 1015.1 |
| 20260903185913 | 90 | 28 | 1.0 | 5.0 | 0.00 | 0.00 | 0.00 | 74 | 1015.1 |
| 20260903185408 | 90 | 31 | 1.0 | 5.0 | 0.00 | 0.00 | 0.00 | 76 | 1015.1 |
| 20260903184901 | 89 | 281 | 1.0 | 5.0 | 0.00 | 0.00 | 0.00 | 76 | 1015.2 |
| 20260903184356 | 89 | 15 | 1.0 | 4.0 | 0.00 | 0.00 | 0.00 | 76 | 1015.1 |
| 20260903183850 | 89 | 142 | 1.0 | 4.0 | 0.00 | 0.00 | 0.00 | 76 | 1015.2 |
| 20260903183344 | 88 | 82 | 1.0 | 5.0 | 0.00 | 0.00 | 0.00 | 78 | 1015.2 |
| 20260903183109 | 88 | 31 | 2.0 | 5.0 | 0.00 | 0.00 | 0.00 | 78 | 1015.3 |
| 20260903182332 | 88 | 38 | 2.0 | 5.0 | 0.00 | 0.00 | 0.00 | 77 | 1015.3 |
| 20260903181826 | 88 | 332 | 2.0 | 6.0 | 0.00 | 0.00 | 0.00 | 77 | 1015.4 |
| 20260903181320 | 89 | 11 | 1.0 | 6.0 | 0.00 | 0.00 | 0.00 | 74 | 1015.4 |
| 20260903180826 | 90 | 0 | 0.0 | 5.0 | 0.00 | 0.00 | 0.00 | 74 | 1015.3 |
| 20260903180539 | 90 | 86 | 1.0 | 5.0 | 0.00 | 0.00 | 0.00 | 74 | 1015.4 |
| 20260903175801 | 91 | 183 | 1.0 | 4.0 | 0.00 | 0.00 | 0.00 | 76 | 1015.4 |
| 20260903175256 | 91 | 62 | 1.0 | 4.0 | 0.00 | 0.00 | 0.00 | 70 | 1015.4 |
| 20260903174750 | 92 | 165 | 1.0 | 4.0 | 0.00 | 0.00 | 0.00 | 73 | 1015.5 |
| 20260903174243 | 90 | 171 | 2.0 | 6.0 | 0.00 | 0.00 | 0.00 | 74 | 1015.5 |
| 20260903173738 | 90 | 248 | 2.0 | 9.0 | 0.00 | 0.00 | 0.00 | 74 | 1015.6 |
| 20260903173503 | 91 | 179 | 3.0 | 9.0 | 0.00 | 0.00 | 0.00 | 72 | 1015.7 |
| 20260903172726 | 92 | 125 | 2.0 | 8.0 | 0.00 | 0.00 | 0.00 | 72 | 1015.6 |
| 20260903172220 | 91 | 190 | 2.0 | 5.0 | 0.00 | 0.00 | 0.00 | 76 | 1015.7 |
| 20260903171727 | 90 | 163 | 2.0 | 5.0 | 0.00 | 0.00 | 0.00 | 75 | 1015.6 |
| 20260903171207 | 90 | 191 | 2.0 | 6.0 | 0.00 | 0.00 | 0.00 | 75 | 1015.7 |
| 20260903170702 | 91 | 143 | 3.0 | 8.0 | 0.00 | 0.00 | 0.00 | 73 | 1015.8 |
| 20260903170426 | 91 | 169 | 3.0 | 8.0 | 0.00 | 0.00 | 0.00 | 73 | 1015.8 |
| 20260903165650 | 91 | 184 | 2.0 | 7.0 | 0.00 | 0.00 | 0.00 | 73 | 1015.7 |
| 20260903165144 | 90 | 128 | 2.0 | 7.0 | 0.00 | 0.00 | 0.00 | 74 | 1015.8 |
| 20260903164637 | 90 | 213 | 2.0 | 7.0 | 0.00 | 0.00 | 0.00 | 74 | 1015.7 |
| 20260903164132 | 89 | 166 | 1.0 | 6.0 | 0.00 | 0.00 | 0.00 | 76 | 1015.9 |
| 20260903163627 | 89 | 255 | 1.0 | 5.0 | 0.00 | 0.00 | 0.00 | 77 | 1016.0 |
| 20260903163120 | 89 | 180 | 1.0 | 4.0 | 0.00 | 0.00 | 0.00 | 74 | 1016.1 |
| 20260903162614 | 90 | 200 | 2.0 | 6.0 | 0.00 | 0.00 | 0.00 | 77 | 1016.3 |
| 20260903162108 | 89 | 162 | 2.0 | 9.0 | 0.00 | 0.00 | 0.00 | 77 | 1016.4 |
| 20260903161602 | 89 | 171 | 2.0 | 5.0 | 0.00 | 0.00 | 0.00 | 78 | 1016.3 |
| 20260903161056 | 89 | 194 | 2.0 | 7.0 | 0.00 | 0.00 | 0.00 | 77 | 1016.4 |
| 20260903160550 | 89 | 182 | 2.0 | 7.0 | 0.00 | 0.00 | 0.00 | 78 | 1016.5 |
| 20260903160328 | 89 | 155 | 2.0 | 5.0 | 0.00 | 0.00 | 0.00 | 78 | 1016.5 |
| 20260903155538 | 89 | 146 | 2.0 | 6.0 | 0.00 | 0.00 | 0.00 | 78 | 1016.6 |
| 20260903155032 | 88 | 86 | 3.0 | 10.0 | 0.00 | 0.00 | 0.00 | 78 | 1016.7 |
| 20260903154757 | 88 | 324 | 3.0 | 10.0 | 0.00 | 0.00 | 0.00 | 78 | 1016.8 |
| 20260903154251 | 87 | 73 | 2.0 | 6.0 | 0.00 | 0.00 | 0.00 | 79 | 1016.8 |
| 20260903153513 | 87 | 178 | 2.0 | 6.0 | 0.00 | 0.00 | 0.00 | 78 | 1016.8 |
| 20260903153008 | 87 | 158 | 2.0 | 6.0 | 0.00 | 0.00 | 0.00 | 79 | 1016.9 |
| 20260903152501 | 87 | 120 | 2.0 | 5.0 | 0.00 | 0.00 | 0.00 | 80 | 1017.0 |
| 20260903151956 | 86 | 5 | 2.0 | 5.0 | 0.00 | 0.00 | 0.00 | 80 | 1016.9 |
| 20260903151449 | 86 | 5 | 2.0 | 5.0 | 0.00 | 0.00 | 0.00 | 80 | 1017.0 |
| 20260903150943 | 86 | 5 | 2.0 | 8.0 | 0.00 | 0.00 | 0.00 | 80 | 1017.0 |
| 20260903150450 | 87 | 15 | 2.0 | 8.0 | 0.00 | 0.00 | 0.00 | 78 | 1017.0 |
| 20260903150203 | 87 | 342 | 1.0 | 4.0 | 0.00 | 0.00 | 0.00 | 77 | 1016.9 |
| 20260903145657 | 88 | 355 | 1.0 | 3.0 | 0.00 | 0.00 | 0.00 | 76 | 1017.0 |
| 20260903144919 | 88 | 160 | 1.0 | 6.0 | 0.00 | 0.00 | 0.00 | 75 | 1017.0 |
| 20260903144417 | 88 | 54 | 2.0 | 6.0 | 0.00 | 0.00 | 0.00 | 76 | 1017.1 |
| 20260903144410 | 88 | 190 | 2.0 | 5.0 | 0.00 | 0.00 | 0.00 | 76 | 1017.0 |
| 20260903143401 | 87 | 5 | 1.0 | 5.0 | 0.00 | 0.00 | 0.00 | 77 | 1017.0 |
| 20260903142856 | 87 | 169 | 1.0 | 3.0 | 0.00 | 0.00 | 0.00 | 77 | 1016.9 |
| 20260903142349 | 87 | 330 | 1.0 | 6.0 | 0.00 | 0.00 | 0.00 | 79 | 1016.9 |
| 20260903141844 | 87 | 327 | 1.0 | 6.0 | 0.00 | 0.00 | 0.00 | 77 | 1016.9 |
| 20260903141337 | 87 | 340 | 1.0 | 3.0 | 0.00 | 0.00 | 0.00 | 78 | 1016.8 |
| 20260903140832 | 86 | 52 | 0.0 | 3.0 | 0.00 | 0.00 | 0.00 | 79 | 1016.7 |
| 20260903140556 | 86 | 140 | 0.0 | 0.0 | 0.00 | 0.00 | 0.00 | 80 | 1016.7 |
| 20260903135819 | 85 | 169 | 0.0 | 0.0 | 0.00 | 0.00 | 0.00 | 80 | 1016.6 |
| 20260903135314 | 84 | 168 | 0.0 | 0.0 | 0.00 | 0.00 | 0.00 | 81 | 1016.7 |
| 20260903134808 | 84 | 257 | 0.0 | 0.0 | 0.00 | 0.00 | 0.00 | 80 | 1016.6 |
| 20260903134302 | 84 | 315 | 0.0 | 1.0 | 0.00 | 0.00 | 0.00 | 81 | 1016.6 |
| 20260903133756 | 84 | 35 | 0.0 | 1.0 | 0.00 | 0.00 | 0.00 | 82 | 1016.6 |
| 20260903133521 | 83 | 182 | 0.0 | 2.0 | 0.00 | 0.00 | 0.00 | 83 | 1016.7 |
| 20260903133015 | 83 | 182 | 1.0 | 2.0 | 0.00 | 0.00 | 0.00 | 83 | 1016.7 |
| 20260903132237 | 83 | 66 | 1.0 | 3.0 | 0.00 | 0.00 | 0.00 | 84 | 1016.8 |
| 20260903131732 | 82 | 141 | 0.0 | 3.0 | 0.00 | 0.00 | 0.00 | 84 | 1016.8 |
| 20260903131225 | 82 | 171 | 0.0 | 2.0 | 0.00 | 0.00 | 0.00 | 85 | 1016.9 |
| 20260903130720 | 82 | 195 | 1.0 | 4.0 | 0.00 | 0.00 | 0.00 | 86 | 1016.9 |
| 20260903130214 | 82 | 253 | 1.0 | 5.0 | 0.00 | 0.00 | 0.00 | 86 | 1016.9 |
| 20260903125708 | 82 | 176 | 1.0 | 5.0 | 0.00 | 0.00 | 0.00 | 87 | 1016.8 |
| 20260903125202 | 81 | 187 | 0.0 | 1.0 | 0.00 | 0.00 | 0.00 | 88 | 1016.9 |
| 20260903124656 | 80 | 189 | 0.0 | 5.0 | 0.00 | 0.00 | 0.00 | 88 | 1016.9 |
| 20260903124150 | 80 | 206 | 1.0 | 5.0 | 0.00 | 0.00 | 0.00 | 89 | 1017.0 |
| 20260903123644 | 80 | 164 | 1.0 | 5.0 | 0.00 | 0.00 | 0.00 | 90 | 1016.9 |
| 20260903123138 | 80 | 194 | 0.0 | 3.0 | 0.00 | 0.00 | 0.00 | 90 | 1016.9 |
| 20260903122631 | 79 | 157 | 0.0 | 0.0 | 0.00 | 0.00 | 0.00 | 90 | 1016.9 |
| 20260903122126 | 79 | 157 | 1.0 | 5.0 | 0.00 | 0.00 | 0.00 | 90 | 1016.9 |
| 20260903121619 | 79 | 184 | 1.0 | 5.0 | 0.00 | 0.00 | 0.00 | 90 | 1016.9 |
| 20260903121114 | 79 | 146 | 0.0 | 5.0 | 0.00 | 0.00 | 0.00 | 90 | 1016.9 |
| 20260903120608 | 78 | 157 | 0.0 | 0.0 | 0.00 | 0.00 | 0.00 | 90 | 1016.9 |
| 20260903120115 | 78 | 182 | 0.0 | 4.0 | 0.00 | 0.00 | 0.00 | 89 | 1017.0 |
| 20260903115608 | 78 | 143 | 0.0 | 4.0 | 0.00 | 0.00 | 0.00 | 89 | 1016.9 |
| 20260903115050 | 77 | 164 | 0.0 | 0.0 | 0.00 | 0.00 | 0.00 | 89 | 1016.9 |
| 20260903114544 | 77 | 179 | 0.0 | 0.0 | 0.00 | 0.00 | 0.00 | 89 | 1016.9 |
| 20260903114050 | 76 | 117 | 0.0 | 0.0 | 0.00 | 0.00 | 0.00 | 89 | 1017.0 |
| 20260903113532 | 76 | 117 | 0.0 | 0.0 | 0.00 | 0.00 | 0.00 | 88 | 1016.9 |
| 20260903113026 | 76 | 117 | 0.0 | 0.0 | 0.00 | 0.00 | 0.00 | 88 | 1016.8 |
| 20260903112519 | 76 | 117 | 0.0 | 0.0 | 0.00 | 0.00 | 0.00 | 88 | 1016.8 |
| 20260903112245 | 76 | 117 | 0.0 | 0.0 | 0.00 | 0.00 | 0.00 | 88 | 1016.8 |
| 20260903111508 | 76 | 117 | 0.0 | 0.0 | 0.00 | 0.00 | 0.00 | 88 | 1016.8 |
| 20260903111001 | 76 | 117 | 0.0 | 0.0 | 0.00 | 0.00 | 0.00 | 88 | 1016.7 |
| 20260903110456 | 76 | 117 | 0.0 | 0.0 | 0.00 | 0.00 | 0.00 | 88 | 1016.6 |
| 20260903105950 | 76 | 117 | 0.0 | 0.0 | 0.00 | 0.00 | 0.00 | 88 | 1016.5 |
| 20260903105444 | 76 | 117 | 0.0 | 0.0 | 0.00 | 0.00 | 0.00 | 88 | 1016.5 |
| 20260903104940 | 76 | 117 | 0.0 | 0.0 | 0.00 | 0.00 | 0.00 | 88 | 1016.5 |
| 20260903104934 | 76 | 117 | 0.0 | 0.0 | 0.00 | 0.00 | 0.00 | 88 | 1016.4 |
| 20260903103926 | 76 | 117 | 0.0 | 0.0 | 0.00 | 0.00 | 0.00 | 87 | 1016.3 |
| 20260903103650 | 76 | 117 | 0.0 | 0.0 | 0.00 | 0.00 | 0.00 | 88 | 1016.3 |
| 20260903102913 | 76 | 117 | 0.0 | 0.0 | 0.00 | 0.00 | 0.00 | 88 | 1016.2 |
| 20260903102408 | 75 | 117 | 0.0 | 0.0 | 0.00 | 0.00 | 0.00 | 87 | 1016.2 |
| 20260903101901 | 75 | 117 | 0.0 | 0.0 | 0.00 | 0.00 | 0.00 | 87 | 1016.2 |
| 20260903101355 | 75 | 117 | 0.0 | 0.0 | 0.00 | 0.00 | 0.00 | 87 | 1016.1 |
| 20260903100850 | 75 | 117 | 0.0 | 0.0 | 0.00 | 0.00 | 0.00 | 87 | 1016.2 |
| 20260903100344 | 76 | 117 | 0.0 | 0.0 | 0.00 | 0.00 | 0.00 | 87 | 1016.1 |
| 20260903095837 | 75 | 117 | 0.0 | 0.0 | 0.00 | 0.00 | 0.00 | 87 | 1016.1 |
| 20260903095332 | 76 | 117 | 0.0 | 0.0 | 0.00 | 0.00 | 0.00 | 87 | 1016.1 |
| 20260903094825 | 76 | 117 | 0.0 | 0.0 | 0.00 | 0.00 | 0.00 | 87 | 1016.1 |
| 20260903094320 | 76 | 117 | 0.0 | 0.0 | 0.00 | 0.00 | 0.00 | 87 | 1016.0 |
| 20260903093814 | 76 | 117 | 0.0 | 0.0 | 0.00 | 0.00 | 0.00 | 87 | 1015.9 |
| 20260903093308 | 76 | 117 | 0.0 | 0.0 | 0.00 | 0.00 | 0.00 | 87 | 1016.0 |
| 20260903093033 | 76 | 117 | 0.0 | 0.0 | 0.00 | 0.00 | 0.00 | 87 | 1016.0 |
| 20260903092533 | 76 | 117 | 0.0 | 0.0 | 0.00 | 0.00 | 0.00 | 87 | 1015.9 |
| 20260903091759 | 76 | 117 | 0.0 | 0.0 | 0.00 | 0.00 | 0.00 | 87 | 1015.8 |
| 20260903091258 | 76 | 117 | 0.0 | 0.0 | 0.00 | 0.00 | 0.00 | 87 | 1015.8 |
| 20260903090755 | 76 | 117 | 0.0 | 0.0 | 0.00 | 0.00 | 0.00 | 87 | 1015.8 |
| 20260903090255 | 76 | 117 | 0.0 | 0.0 | 0.00 | 0.00 | 0.00 | 87 | 1015.7 |
| 20260903090027 | 76 | 117 | 0.0 | 0.0 | 0.00 | 0.00 | 0.00 | 87 | 1015.7 |
| 20260903085253 | 76 | 117 | 0.0 | 0.0 | 0.00 | 0.00 | 0.00 | 87 | 1015.7 |
| 20260903084753 | 76 | 117 | 0.0 | 0.0 | 0.00 | 0.00 | 0.00 | 87 | 1015.6 |
| 20260903084253 | 76 | 117 | 0.0 | 0.0 | 0.00 | 0.00 | 0.00 | 87 | 1015.6 |
| 20260903083751 | 76 | 117 | 0.0 | 0.0 | 0.00 | 0.00 | 0.00 | 87 | 1015.7 |
| 20260903083250 | 76 | 117 | 0.0 | 0.0 | 0.00 | 0.00 | 0.00 | 87 | 1015.7 |
| 20260903083021 | 76 | 117 | 0.0 | 0.0 | 0.00 | 0.00 | 0.00 | 87 | 1015.8 |
| 20260903082249 | 76 | 117 | 0.0 | 0.0 | 0.00 | 0.00 | 0.00 | 86 | 1015.7 |
| 20260903082019 | 76 | 117 | 0.0 | 0.0 | 0.00 | 0.00 | 0.00 | 87 | 1015.8 |
| 20260903081516 | 76 | 117 | 0.0 | 0.0 | 0.00 | 0.00 | 0.00 | 87 | 1015.7 |
| 20260903080745 | 76 | 117 | 0.0 | 0.0 | 0.00 | 0.00 | 0.00 | 87 | 1015.6 |
| 20260903080245 | 76 | 117 | 0.0 | 0.0 | 0.00 | 0.00 | 0.00 | 87 | 1015.7 |
| 20260903075743 | 76 | 117 | 0.0 | 0.0 | 0.00 | 0.00 | 0.00 | 86 | 1015.7 |
| 20260903075242 | 76 | 117 | 0.0 | 0.0 | 0.00 | 0.00 | 0.00 | 86 | 1015.7 |
| 20260903074740 | 76 | 117 | 0.0 | 0.0 | 0.00 | 0.00 | 0.00 | 87 | 1015.7 |
| 20260903074234 | 76 | 117 | 0.0 | 0.0 | 0.00 | 0.00 | 0.00 | 87 | 1015.7 |
| 20260903073727 | 76 | 117 | 0.0 | 0.0 | 0.00 | 0.00 | 0.00 | 87 | 1015.7 |
| 20260903073222 | 76 | 117 | 0.0 | 0.0 | 0.00 | 0.00 | 0.00 | 86 | 1015.9 |
| 20260903072946 | 76 | 117 | 0.0 | 0.0 | 0.00 | 0.00 | 0.00 | 86 | 1015.9 |
| 20260903072210 | 76 | 117 | 0.0 | 0.0 | 0.00 | 0.00 | 0.00 | 86 | 1015.8 |
| 20260903071704 | 76 | 117 | 0.0 | 0.0 | 0.00 | 0.00 | 0.00 | 86 | 1015.8 |
| 20260903071158 | 76 | 117 | 0.0 | 0.0 | 0.00 | 0.00 | 0.00 | 87 | 1015.8 |
| 20260903070652 | 76 | 117 | 0.0 | 0.0 | 0.00 | 0.00 | 0.00 | 87 | 1015.8 |
| 20260903070146 | 76 | 117 | 0.0 | 0.0 | 0.00 | 0.00 | 0.00 | 86 | 1015.8 |
| 20260903065643 | 76 | 117 | 0.0 | 0.0 | 0.00 | 0.00 | 0.00 | 86 | 1015.8 |
| 20260903065636 | 76 | 117 | 0.0 | 0.0 | 0.00 | 0.00 | 0.00 | 86 | 1015.8 |
| 20260903064900 | 76 | 117 | 0.0 | 0.0 | 0.00 | 0.00 | 0.00 | 87 | 1015.9 |
| 20260903064122 | 76 | 117 | 0.0 | 0.0 | 0.00 | 0.00 | 0.00 | 86 | 1016.0 |
| 20260903063616 | 77 | 117 | 0.0 | 0.0 | 0.00 | 0.00 | 0.00 | 86 | 1016.0 |
| 20260903063110 | 77 | 117 | 0.0 | 0.0 | 0.00 | 0.00 | 0.00 | 86 | 1016.0 |
| 20260903062604 | 77 | 117 | 0.0 | 0.0 | 0.00 | 0.00 | 0.00 | 86 | 1015.9 |
| 20260903062058 | 77 | 117 | 0.0 | 0.0 | 0.00 | 0.00 | 0.00 | 87 | 1016.0 |
| 20260903061551 | 77 | 117 | 0.0 | 0.0 | 0.00 | 0.00 | 0.00 | 87 | 1016.2 |
| 20260903061046 | 77 | 117 | 0.0 | 0.0 | 0.00 | 0.00 | 0.00 | 87 | 1016.2 |
| 20260903060552 | 77 | 117 | 0.0 | 0.0 | 0.00 | 0.00 | 0.00 | 86 | 1016.2 |
| 20260903060034 | 77 | 117 | 0.0 | 0.0 | 0.00 | 0.00 | 0.00 | 86 | 1016.4 |
| 20260903055759 | 77 | 117 | 0.0 | 0.0 | 0.00 | 0.00 | 0.00 | 86 | 1016.5 |
| 20260903055022 | 77 | 117 | 0.0 | 0.0 | 0.00 | 0.00 | 0.00 | 86 | 1016.5 |
| 20260903054517 | 77 | 117 | 0.0 | 0.0 | 0.00 | 0.00 | 0.00 | 86 | 1016.5 |
| 20260903054010 | 78 | 117 | 0.0 | 0.0 | 0.00 | 0.00 | 0.00 | 86 | 1016.6 |
| 20260903053504 | 78 | 117 | 0.0 | 0.0 | 0.00 | 0.00 | 0.00 | 86 | 1016.4 |
| 20260903052958 | 78 | 182 | 0.0 | 0.0 | 0.00 | 0.00 | 0.00 | 86 | 1016.6 |
| 20260903052452 | 78 | 182 | 0.0 | 0.0 | 0.00 | 0.00 | 0.00 | 86 | 1016.7 |
| 20260903052218 | 78 | 182 | 0.0 | 0.0 | 0.00 | 0.00 | 0.00 | 86 | 1016.5 |
| 20260903051439 | 78 | 182 | 0.0 | 0.0 | 0.00 | 0.00 | 0.00 | 86 | 1016.7 |
| 20260903050934 | 78 | 182 | 0.0 | 0.0 | 0.00 | 0.00 | 0.00 | 86 | 1016.6 |
| 20260903050428 | 78 | 182 | 0.0 | 0.0 | 0.00 | 0.00 | 0.00 | 86 | 1016.7 |
| 20260903050153 | 78 | 182 | 0.0 | 0.0 | 0.00 | 0.00 | 0.00 | 86 | 1016.5 |
| 20260903045416 | 78 | 171 | 0.0 | 0.0 | 0.00 | 0.00 | 0.00 | 86 | 1016.5 |
| 20260903045142 | 78 | 171 | 0.0 | 0.0 | 0.00 | 0.00 | 0.00 | 86 | 1016.4 |
| 20260903044417 | 78 | 171 | 0.0 | 0.0 | 0.00 | 0.00 | 0.00 | 86 | 1016.4 |
| 20260903043858 | 78 | 188 | 0.0 | 0.0 | 0.00 | 0.00 | 0.00 | 86 | 1016.5 |
| 20260903043623 | 78 | 161 | 0.0 | 0.0 | 0.00 | 0.00 | 0.00 | 86 | 1016.4 |
| 20260903043118 | 78 | 184 | 0.0 | 0.0 | 0.00 | 0.00 | 0.00 | 85 | 1016.3 |
| 20260903042340 | 78 | 184 | 0.0 | 0.0 | 0.00 | 0.00 | 0.00 | 85 | 1016.3 |
| 20260903041834 | 78 | 184 | 0.0 | 0.0 | 0.00 | 0.00 | 0.00 | 85 | 1016.2 |
| 20260903041328 | 78 | 184 | 0.0 | 0.0 | 0.00 | 0.00 | 0.00 | 85 | 1016.2 |
| 20260903040822 | 78 | 184 | 0.0 | 0.0 | 0.00 | 0.00 | 0.00 | 85 | 1016.2 |
| 20260903040316 | 78 | 150 | 0.0 | 0.0 | 0.00 | 0.00 | 0.00 | 84 | 1016.2 |
| 20260903040041 | 78 | 150 | 0.0 | 0.0 | 0.00 | 0.00 | 0.00 | 84 | 1016.1 |
| 20260903035306 | 78 | 150 | 0.0 | 0.0 | 0.00 | 0.00 | 0.00 | 85 | 1016.2 |
| 20260903034758 | 78 | 183 | 0.0 | 0.0 | 0.00 | 0.00 | 0.00 | 85 | 1016.3 |
| 20260903034252 | 78 | 140 | 0.0 | 0.0 | 0.00 | 0.00 | 0.00 | 84 | 1016.5 |
| 20260903033746 | 78 | 140 | 0.0 | 0.0 | 0.00 | 0.00 | 0.00 | 84 | 1016.7 |
| 20260903033511 | 78 | 140 | 0.0 | 0.0 | 0.00 | 0.00 | 0.00 | 84 | 1016.7 |
| 20260903032734 | 78 | 140 | 0.0 | 0.0 | 0.00 | 0.00 | 0.00 | 84 | 1016.5 |
| 20260903032227 | 79 | 140 | 0.0 | 0.0 | 0.00 | 0.00 | 0.00 | 84 | 1016.5 |
| 20260903031722 | 79 | 140 | 0.0 | 0.0 | 0.00 | 0.00 | 0.00 | 84 | 1016.4 |
| 20260903031216 | 79 | 140 | 0.0 | 0.0 | 0.00 | 0.00 | 0.00 | 84 | 1016.4 |
| 20260903030710 | 79 | 140 | 0.0 | 0.0 | 0.00 | 0.00 | 0.00 | 84 | 1016.3 |
| 20260903030204 | 79 | 140 | 0.0 | 0.0 | 0.00 | 0.00 | 0.00 | 84 | 1016.4 |
| 20260903025658 | 79 | 140 | 0.0 | 0.0 | 0.00 | 0.00 | 0.00 | 84 | 1016.5 |
| 20260903025152 | 79 | 140 | 0.0 | 0.0 | 0.00 | 0.00 | 0.00 | 84 | 1016.6 |
| 20260903024646 | 79 | 140 | 0.0 | 0.0 | 0.00 | 0.00 | 0.00 | 84 | 1016.7 |
| 20260903024140 | 79 | 168 | 0.0 | 0.0 | 0.00 | 0.00 | 0.00 | 84 | 1016.8 |
| 20260903023633 | 79 | 168 | 0.0 | 0.0 | 0.00 | 0.00 | 0.00 | 83 | 1016.8 |
| 20260903023128 | 79 | 168 | 0.0 | 0.0 | 0.00 | 0.00 | 0.00 | 83 | 1016.9 |
| 20260903022622 | 79 | 168 | 0.0 | 0.0 | 0.00 | 0.00 | 0.00 | 83 | 1017.0 |
| 20260903022119 | 79 | 168 | 0.0 | 0.0 | 0.00 | 0.00 | 0.00 | 83 | 1016.9 |
| 20260903021619 | 79 | 168 | 0.0 | 0.0 | 0.00 | 0.00 | 0.00 | 83 | 1016.9 |
| 20260903021131 | 79 | 168 | 0.0 | 0.0 | 0.00 | 0.00 | 0.00 | 83 | 1017.0 |
| 20260903020631 | 79 | 196 | 0.0 | 0.0 | 0.00 | 0.00 | 0.00 | 83 | 1017.3 |
| 20260903020117 | 79 | 196 | 0.0 | 0.0 | 0.00 | 0.00 | 0.00 | 83 | 1017.4 |
| 20260903015617 | 80 | 196 | 0.0 | 0.0 | 0.00 | 0.00 | 0.00 | 83 | 1017.5 |
| 20260903015345 | 80 | 196 | 0.0 | 0.0 | 0.00 | 0.00 | 0.00 | 83 | 1017.5 |
| 20260903014843 | 80 | 196 | 0.0 | 0.0 | 0.00 | 0.00 | 0.00 | 83 | 1017.3 |
| 20260903014110 | 80 | 196 | 0.0 | 0.0 | 0.00 | 0.00 | 0.00 | 83 | 1017.3 |
| 20260903013608 | 80 | 196 | 0.0 | 0.0 | 0.00 | 0.00 | 0.00 | 83 | 1017.3 |
| 20260903013109 | 80 | 196 | 0.0 | 0.0 | 0.00 | 0.00 | 0.00 | 83 | 1017.0 |
| 20260903012608 | 80 | 198 | 0.0 | 0.0 | 0.00 | 0.00 | 0.00 | 83 | 1016.9 |
| 20260903012105 | 80 | 152 | 0.0 | 0.0 | 0.00 | 0.00 | 0.00 | 83 | 1016.9 |
| 20260903011605 | 80 | 149 | 0.0 | 0.0 | 0.00 | 0.00 | 0.00 | 83 | 1016.8 |
| 20260903011106 | 80 | 140 | 0.0 | 0.0 | 0.00 | 0.00 | 0.00 | 82 | 1016.7 |
| 20260903010605 | 80 | 173 | 0.0 | 0.0 | 0.00 | 0.00 | 0.00 | 82 | 1016.6 |
| 20260903010342 | 80 | 178 | 0.0 | 4.0 | 0.00 | 0.00 | 0.00 | 82 | 1016.6 |
| 20260903005605 | 80 | 180 | 1.0 | 4.0 | 0.00 | 0.00 | 0.00 | 82 | 1016.6 |
| 20260903005106 | 80 | 148 | 0.0 | 2.0 | 0.00 | 0.00 | 0.00 | 82 | 1016.3 |
| 20260903004831 | 80 | 338 | 0.0 | 0.0 | 0.00 | 0.00 | 0.00 | 81 | 1016.2 |
| 20260903004054 | 80 | 338 | 0.0 | 0.0 | 0.00 | 0.00 | 0.00 | 80 | 1016.2 |
| 20260903003819 | 80 | 338 | 0.0 | 0.0 | 0.00 | 0.00 | 0.00 | 80 | 1016.2 |
| 20260903003314 | 80 | 338 | 0.0 | 0.0 | 0.00 | 0.00 | 0.00 | 79 | 1016.5 |
| 20260903002537 | 80 | 338 | 0.0 | 0.0 | 0.00 | 0.00 | 0.00 | 79 | 1016.6 |
| 20260903002030 | 80 | 338 | 0.0 | 0.0 | 0.00 | 0.00 | 0.00 | 79 | 1016.5 |
| 20260903001754 | 80 | 338 | 0.0 | 0.0 | 0.00 | 0.00 | 0.00 | 79 | 1016.4 |
| 20260903001018 | 80 | 338 | 0.0 | 0.0 | 0.00 | 0.00 | 0.00 | 79 | 1016.4 |
| 20260903000512 | 80 | 338 | 0.0 | 0.0 | 0.00 | 0.00 | 0.00 | 79 | 1016.1 |
| 20260903000006 | 80 | 338 | 0.0 | 0.0 | 0.00 | 0.00 | 0.00 | 79 | 1016.0 |
| 20260902235459 | 81 | 338 | 0.0 | 0.0 | 0.00 | 0.00 | 0.00 | 79 | 1015.9 |
| 20260902234954 | 81 | 196 | 0.0 | 0.0 | 0.00 | 0.00 | 0.00 | 78 | 1015.5 |
| 20260902234448 | 81 | 197 | 0.0 | 0.0 | 0.00 | 0.00 | 0.00 | 78 | 1015.3 |
| 20260902233942 | 81 | 197 | 0.0 | 0.0 | 0.00 | 0.00 | 0.00 | 78 | 1015.3 |
| 20260902233436 | 81 | 197 | 0.0 | 0.0 | 0.00 | 0.00 | 0.00 | 77 | 1015.5 |
| 20260902232930 | 81 | 197 | 0.0 | 0.0 | 0.00 | 0.00 | 0.00 | 77 | 1015.7 |
| 20260902232655 | 81 | 197 | 0.0 | 0.0 | 0.00 | 0.00 | 0.00 | 78 | 1015.7 |
| 20260902231917 | 81 | 194 | 0.0 | 0.0 | 0.00 | 0.00 | 0.00 | 77 | 1015.8 |
| 20260902231412 | 81 | 194 | 0.0 | 0.0 | 0.00 | 0.00 | 0.00 | 77 | 1015.9 |
| 20260902230906 | 81 | 194 | 0.0 | 1.0 | 0.00 | 0.00 | 0.00 | 77 | 1015.8 |
| 20260902230400 | 81 | 194 | 0.0 | 1.0 | 0.00 | 0.00 | 0.00 | 77 | 1015.8 |
| 20260902225853 | 81 | 172 | 1.0 | 5.0 | 0.00 | 0.00 | 0.00 | 77 | 1015.8 |
| 20260902225348 | 81 | 172 | 1.0 | 5.0 | 0.00 | 0.00 | 0.00 | 77 | 1015.7 |
| 20260902224842 | 81 | 190 | 1.0 | 4.0 | 0.00 | 0.00 | 0.00 | 77 | 1015.9 |
| 20260902224336 | 82 | 128 | 2.0 | 4.0 | 0.00 | 0.00 | 0.00 | 76 | 1016.0 |
| 20260902223843 | 82 | 195 | 2.0 | 5.0 | 0.00 | 0.00 | 0.00 | 77 | 1016.1 |
| 20260902223324 | 82 | 172 | 2.0 | 5.0 | 0.00 | 0.00 | 0.00 | 76 | 1016.2 |
| 20260902222818 | 82 | 157 | 1.0 | 3.0 | 0.00 | 0.00 | 0.00 | 76 | 1016.6 |
| 20260902222312 | 82 | 173 | 1.0 | 5.0 | 0.00 | 0.00 | 0.00 | 77 | 1016.7 |
| 20260902222036 | 82 | 152 | 2.0 | 5.0 | 0.00 | 0.00 | 0.00 | 76 | 1016.5 |
| 20260902221300 | 82 | 159 | 1.0 | 6.0 | 0.00 | 0.00 | 0.00 | 76 | 1016.7 |
| 20260902221024 | 82 | 55 | 1.0 | 6.0 | 0.00 | 0.00 | 0.00 | 76 | 1017.0 |
| 20260902220248 | 82 | 91 | 2.0 | 5.0 | 0.00 | 0.00 | 0.00 | 77 | 1017.3 |
| 20260902215741 | 82 | 172 | 3.0 | 7.0 | 0.00 | 0.00 | 0.00 | 77 | 1017.5 |
| 20260902215236 | 82 | 129 | 2.0 | 8.0 | 0.00 | 0.00 | 0.00 | 77 | 1017.5 |
| 20260902214730 | 82 | 182 | 3.0 | 8.0 | 0.00 | 0.00 | 0.00 | 78 | 1017.8 |
| 20260902214224 | 82 | 77 | 3.0 | 11.0 | 0.00 | 0.00 | 0.00 | 79 | 1017.9 |
| 20260902213718 | 83 | 30 | 3.0 | 15.0 | 0.00 | 0.00 | 0.00 | 79 | 1018.1 |
| 20260902213443 | 83 | 333 | 3.0 | 15.0 | 0.00 | 0.00 | 0.00 | 79 | 1017.9 |
| 20260902212809 | 83 | 114 | 3.0 | 10.0 | 0.00 | 0.00 | 0.00 | 79 | 1017.7 |
| 20260902211654 | 84 | 329 | 2.0 | 9.0 | 0.00 | 0.00 | 0.00 | 78 | 1017.6 |
| 20260902211148 | 84 | 62 | 3.0 | 9.0 | 0.00 | 0.00 | 0.00 | 78 | 1017.5 |
| 20260902210642 | 84 | 77 | 4.0 | 9.0 | 0.00 | 0.00 | 0.00 | 79 | 1017.4 |
| 20260902210136 | 84 | 14 | 4.0 | 10.0 | 0.00 | 0.00 | 0.00 | 79 | 1017.4 |
| 20260902205630 | 84 | 338 | 4.0 | 10.0 | 0.00 | 0.00 | 0.00 | 79 | 1017.6 |
| 20260902205124 | 85 | 5 | 4.0 | 10.0 | 0.00 | 0.00 | 0.00 | 78 | 1017.6 |
| 20260902204618 | 85 | 0 | 3.0 | 9.0 | 0.00 | 0.00 | 0.00 | 78 | 1017.6 |
| 20260902204112 | 85 | 333 | 3.0 | 9.0 | 0.00 | 0.00 | 0.00 | 79 | 1017.5 |
| 20260902203605 | 85 | 32 | 4.0 | 10.0 | 0.00 | 0.00 | 0.00 | 79 | 1017.5 |
| 20260902203100 | 85 | 125 | 5.0 | 10.0 | 0.00 | 0.00 | 0.00 | 78 | 1017.4 |
| 20260902202554 | 86 | 38 | 3.0 | 10.0 | 0.00 | 0.00 | 0.00 | 77 | 1017.2 |
| 20260902202048 | 86 | 12 | 2.0 | 9.0 | 0.00 | 0.00 | 0.00 | 77 | 1017.0 |
| 20260902201813 | 86 | 51 | 3.0 | 9.0 | 0.00 | 0.00 | 0.00 | 77 | 1016.8 |
| 20260902201036 | 86 | 140 | 3.0 | 9.0 | 0.00 | 0.00 | 0.00 | 76 | 1016.8 |
| 20260902200530 | 87 | 5 | 3.0 | 9.0 | 0.00 | 0.00 | 0.00 | 76 | 1016.9 |
| 20260902200024 | 87 | 9 | 2.0 | 9.0 | 0.00 | 0.00 | 0.00 | 77 | 1016.9 |